Colby, KS

3:07 PM CST on November 22, 2019 (GMT -0600)
Shaltz

Weather History for KCBK - September, 2019

Change the Weather History Date:

Monday, September 30, 2019

  Actual Average (WUND) Record (WUND)
Temperature  
Mean Temperature 81 °F -  
Max Temperature 93 °F - - (-1)
Min Temperature 69 °F - - (-1)
Cooling Degree Days 16    
Growing Degree Days 31 (Base 50)    
Moisture  
Dew Point 58 °F    
Average Humidity 54    
Maximum Humidity 78    
Minimum Humidity 21    
Precipitation  
Precipitation 0.00 in - - ()
Sea Level Pressure  
Sea Level Pressure 29.79 in    
Wind  
Wind Speed 20 mph (South)    
Max Wind Speed 30 mph    
Max Gust Speed 37 mph    
Visibility 10 miles    
Events      
Averages and records for this station are not official NWS values.
T = Trace of Precipitation, MM = Missing Value Source: NWS Daily Summary

Daily Weather History Graph

Daily Weather History Graph

Search for Another Location

Airport or City:

Astronomy

Sep. 30, 2019 Rise Set
Actual Time 7:39 AM CDT 7:28 PM CDT
Civil Twilight 7:12 AM CDT 7:55 PM CDT
Nautical Twilight 6:41 AM CDT 8:26 PM CDT
Astronomical Twilight 6:09 AM CDT 8:57 PM CDT
Moon 9:45 AM CDT (9/30) 9:06 PM CDT (9/30)
Length of Visible Light 12h 42m
Length of Day
11h 49m
Waxing Crescent, 6% of the Moon is Illuminated
Sep 30
Waxing Crescent
Oct 5
First Quarter
Oct 13
Full
Oct 21
Last Quarter
Oct 27
New

Hourly Weather History & Observations

Time (CDT) Temp. Heat Index Dew Point Humidity Pressure Visibility Wind Dir Wind Speed Gust Speed Precip Events Conditions
12:15 AM 73.4 °F - 62.6 °F 69% 29.79 in 10.0 mi South 18.4 mph 29.9 mph N/A   Clear
12:35 AM 73.4 °F - 62.6 °F 69% 29.79 in 10.0 mi South 25.3 mph 32.2 mph N/A   Clear
12:55 AM 73.4 °F - 62.6 °F 69% 29.79 in 10.0 mi South 26.5 mph 34.5 mph N/A   Clear
1:15 AM 73.4 °F - 62.6 °F 69% 29.79 in 10.0 mi South 24.2 mph 32.2 mph N/A   Clear
2:15 AM 73.4 °F - 62.6 °F 69% 29.79 in 10.0 mi South 21.9 mph 27.6 mph N/A   Clear
2:35 AM 71.6 °F - 62.6 °F 73% 29.79 in 10.0 mi South 20.7 mph 31.1 mph N/A   Clear
2:55 AM 71.6 °F - 62.6 °F 73% 29.79 in 10.0 mi South 21.9 mph 28.8 mph N/A   Clear
3:15 AM 71.6 °F - 62.6 °F 73% 29.79 in 10.0 mi South 17.3 mph 29.9 mph N/A   Clear
3:35 AM 71.6 °F - 62.6 °F 73% 29.78 in 10.0 mi South 21.9 mph 28.8 mph N/A   Clear
3:55 AM 71.6 °F - 62.6 °F 73% 29.78 in 10.0 mi South 21.9 mph 31.1 mph N/A   Clear
4:15 AM 71.6 °F - 62.6 °F 73% 29.78 in 10.0 mi South 21.9 mph 28.8 mph N/A   Clear
4:35 AM 71.6 °F - 62.6 °F 73% 29.79 in 10.0 mi South 24.2 mph 33.4 mph N/A   Clear
4:55 AM 71.6 °F - 62.6 °F 73% 29.79 in 10.0 mi South 19.6 mph 33.4 mph N/A   Clear
5:15 AM 71.6 °F - 62.6 °F 73% 29.78 in 10.0 mi South 21.9 mph 32.2 mph N/A   Clear
5:35 AM 71.6 °F - 62.6 °F 73% 29.78 in 10.0 mi South 20.7 mph 29.9 mph N/A   Clear
6:15 AM 69.8 °F - 62.6 °F 78% 29.78 in 10.0 mi South 19.6 mph 27.6 mph N/A   Clear
6:35 AM 69.8 °F - 62.6 °F 78% 29.78 in 10.0 mi South 20.7 mph 32.2 mph N/A   Clear
6:55 AM 69.8 °F - 62.6 °F 78% 29.79 in 10.0 mi South 21.9 mph 28.8 mph N/A   Clear
7:35 AM 69.8 °F - 62.6 °F 78% 29.79 in 10.0 mi South 17.3 mph 24.2 mph N/A   Clear
7:55 AM 69.8 °F - 62.6 °F 78% 29.80 in 10.0 mi South 17.3 mph 25.3 mph N/A   Clear
8:15 AM 69.8 °F - 62.6 °F 78% 29.80 in 10.0 mi South 13.8 mph - N/A   Clear
8:35 AM 69.8 °F - 62.6 °F 78% 29.81 in 10.0 mi South 15.0 mph 24.2 mph N/A   Clear
8:55 AM 69.8 °F - 62.6 °F 78% 29.82 in 10.0 mi South 15.0 mph - N/A   Clear
9:15 AM 71.6 °F - 60.8 °F 69% 29.82 in 10.0 mi South 17.3 mph 26.5 mph N/A   Clear
9:35 AM 73.4 °F - 60.8 °F 65% 29.82 in 10.0 mi South 16.1 mph 21.9 mph N/A   Clear
9:55 AM 73.4 °F - 60.8 °F 65% 29.83 in 10.0 mi SSW 19.6 mph 25.3 mph N/A   Clear
10:15 AM 77.0 °F - 59.0 °F 54% 29.84 in 10.0 mi SSW 21.9 mph 28.8 mph N/A   Clear
10:35 AM 78.8 °F - 57.2 °F 47% 29.84 in 10.0 mi SSW 16.1 mph 26.5 mph N/A   Clear
10:55 AM 80.6 °F 80.5 °F 55.4 °F 42% 29.84 in 10.0 mi SSW 21.9 mph 29.9 mph N/A   Clear
11:15 AM 80.6 °F 80.3 °F 53.6 °F 39% 29.84 in 10.0 mi SW 19.6 mph 27.6 mph N/A   Clear
11:35 AM 82.4 °F - 51.8 °F 35% 29.84 in 10.0 mi SW 20.7 mph 27.6 mph N/A   Clear
11:55 AM 84.2 °F - 50.0 °F 30% 29.84 in 10.0 mi SW 18.4 mph 29.9 mph N/A   Clear
12:15 PM 84.2 °F - 48.2 °F 29% 29.83 in 10.0 mi SW 23.0 mph 27.6 mph N/A   Clear
12:55 PM 87.8 °F - 46.4 °F 24% 29.83 in 10.0 mi SSW 18.4 mph 26.5 mph N/A   Clear
1:15 PM 87.8 °F - 46.4 °F 24% 29.82 in 10.0 mi SSW 19.6 mph 27.6 mph N/A   Clear
1:35 PM 87.8 °F - 46.4 °F 24% 29.82 in 10.0 mi SSW 16.1 mph 21.9 mph N/A   Clear
1:55 PM 89.6 °F - 48.2 °F 24% 29.81 in 10.0 mi SSW 13.8 mph 27.6 mph N/A   Clear
2:15 PM 89.6 °F - 50.0 °F 26% 29.80 in 10.0 mi SSW 16.1 mph 25.3 mph N/A   Clear
2:35 PM 91.4 °F - 46.4 °F 21% 29.79 in 10.0 mi SSW 13.8 mph 23.0 mph N/A   Clear
2:55 PM 91.4 °F - 48.2 °F 23% 29.79 in 10.0 mi SSW 16.1 mph 27.6 mph N/A   Clear
3:15 PM 91.4 °F - 48.2 °F 23% 29.78 in 10.0 mi SSW 19.6 mph 28.8 mph N/A   Scattered Clouds
3:35 PM 93.2 °F - 48.2 °F 21% 29.77 in 10.0 mi SSW 18.4 mph 26.5 mph N/A   Scattered Clouds
3:55 PM 93.2 °F - 50.0 °F 23% 29.77 in 10.0 mi South 17.3 mph 28.8 mph N/A   Clear
4:15 PM 93.2 °F - 50.0 °F 23% 29.75 in 10.0 mi SSW 20.7 mph 26.5 mph N/A   Clear
4:35 PM 93.2 °F - 50.0 °F 23% 29.75 in 10.0 mi South 19.6 mph 31.1 mph N/A   Scattered Clouds
4:55 PM 93.2 °F - 50.0 °F 23% 29.74 in 10.0 mi SSW 18.4 mph 27.6 mph N/A   Scattered Clouds
5:15 PM 93.2 °F - 50.0 °F 23% 29.75 in 10.0 mi SSW 20.7 mph 27.6 mph N/A   Scattered Clouds
5:35 PM 91.4 °F - 51.8 °F 26% 29.74 in 10.0 mi South 20.7 mph 28.8 mph N/A   Scattered Clouds
6:15 PM 87.8 °F 86.1 °F 55.4 °F 33% 29.75 in 10.0 mi South 24.2 mph 36.8 mph N/A   Scattered Clouds
6:35 PM 86.0 °F 85.4 °F 59.0 °F 40% 29.75 in 10.0 mi SSE 21.9 mph 35.7 mph N/A   Scattered Clouds
6:55 PM 84.2 °F 83.8 °F 59.0 °F 42% 29.75 in 10.0 mi SSE 25.3 mph 33.4 mph N/A   Scattered Clouds
7:15 PM 82.4 °F 82.9 °F 60.8 °F 48% 29.76 in 10.0 mi South 29.9 mph 35.7 mph N/A   Clear
7:35 PM 80.6 °F 81.5 °F 60.8 °F 51% 29.76 in 10.0 mi SSE 28.8 mph 35.7 mph N/A   Clear
7:55 PM 78.8 °F - 60.8 °F 54% 29.77 in 10.0 mi South 25.3 mph 35.7 mph N/A   Clear
8:15 PM 78.8 °F - 60.8 °F 54% 29.77 in 10.0 mi South 21.9 mph 31.1 mph N/A   Clear
8:35 PM 77.0 °F - 60.8 °F 57% 29.78 in 10.0 mi South 23.0 mph 28.8 mph N/A   Clear
8:55 PM 77.0 °F - 60.8 °F 57% 29.79 in 10.0 mi South 21.9 mph 35.7 mph N/A   Clear
9:15 PM 77.0 °F - 60.8 °F 57% 29.79 in 10.0 mi South 19.6 mph 26.5 mph N/A   Clear
9:35 PM 77.0 °F - 60.8 °F 57% 29.80 in 10.0 mi South 19.6 mph 28.8 mph N/A   Clear
9:55 PM 75.2 °F - 60.8 °F 61% 29.80 in 10.0 mi South 17.3 mph 27.6 mph N/A   Clear
10:15 PM 73.4 °F - 60.8 °F 65% 29.80 in 10.0 mi South 16.1 mph 26.5 mph N/A   Clear
10:35 PM 73.4 °F - 60.8 °F 65% 29.80 in 10.0 mi South 13.8 mph 24.2 mph N/A   Clear
10:55 PM 73.4 °F - 62.6 °F 69% 29.81 in 10.0 mi South 17.3 mph - N/A   Clear
11:15 PM 73.4 °F - 62.6 °F 69% 29.81 in 10.0 mi South 16.1 mph - N/A   Clear
11:35 PM 73.4 °F - 60.8 °F 65% 29.80 in 10.0 mi South 15.0 mph 20.7 mph N/A   Clear
11:55 PM 73.4 °F - 60.8 °F 65% 29.80 in 10.0 mi South 17.3 mph 25.3 mph N/A   Clear